Flag for Germany Weather past 2 weeks in Rendsburg, Schleswig-Holstein, Germany

Now
61 °F

Cool.


Feels Like: 61 °F
Forecast: 54 / 71 °F
Wind: 3 mph from Northeast

Location: Hohn

Current Time: Sep 20, 2014 at 12:12:37 AM

Latest Report: Sep 19, 2014 at 11:20 PM


Visibility: 2 mi

Pressure: 29.95 "Hg

Humidity: 94%

Dew point: 59 °F

Location of RendsburgLocation

Historic Weather in Rendsburg — Graph

°F

Rendsburg temperature yesterday

Maximum temperature yesterday: 73 °F (at 2:20 PM)
Minimum temperature yesterday: 55 °F (at 3:20 AM)
Average temperature yesterday: 63 °F

Past Weeks' High & Low Weather Summary

 TemperatureHumidityPressure
High75 °F (Sep 5, 2:20 PM)100% (Sep 7, 11:20 PM)30.27 "Hg (Sep 7, 11:20 PM)
Low46 °F (Sep 12, 3:20 AM)50% (Sep 17, 1:20 PM)29.86 "Hg (Sep 6, 4:20 PM)
Average62 °F83%30.06 "Hg
* Reported Sep 4 10:20 PM — Sep 19 10:20 PM, Rendsburg, Weather by CustomWeather, © 2014

Note: Actual official high and low records may vary slightly from our data, if they occured in-between our weather recording intervals... More about our weather records

Advertising

Rendsburg weather history for previous 24 hours

 ConditionsComfort  
Time TempWeatherWind HumidityBarometerVisibility
10:20 PM
Sep 19
59 °FCool.5 mph94%29.95 "Hg1 mi
9:20 PM59 °FCool.5 mph94%29.95 "Hg2 mi
8:20 PM61 °FCool.5 mph88%29.92 "Hg3 mi
7:20 PM64 °FMild.6 mph73%29.92 "Hg4 mi
6:20 PM68 °FMild.9 mph64%29.92 "Hg4 mi
5:20 PM70 °FMild.13 mph64%29.92 "Hg4 mi
4:20 PM72 °FPassing clouds.13 mph61%29.92 "HgN/A
3:20 PM73 °FPassing clouds.14 mph57%29.92 "HgN/A
2:20 PM73 °FPassing clouds.9 mph57%29.92 "HgN/A
1:20 PM72 °FMild.8 mph61%29.92 "HgN/A
12:20 PM72 °FPassing clouds.9 mph61%29.92 "HgN/A
11:20 AM68 °FPassing clouds.9 mph73%29.95 "HgN/A
10:20 AM64 °FPassing clouds.7 mph83%29.95 "Hg5 mi
8:45 AM59 °FFog.6 mph100%29.92 "Hg2 mi
8:20 AM57 °FFog.3 mph100%29.92 "Hg2 mi
7:20 AM55 °FFog.2 mph100%29.92 "Hg1 mi
6:20 AM55 °FFog.5 mph94%29.92 "Hg1 mi
5:20 AM55 °FFog.5 mph94%29.92 "Hg1 mi
4:20 AM55 °FCool.5 mph100%29.92 "Hg1 mi
3:20 AM55 °FCool.5 mph100%29.92 "Hg2 mi
2:20 AM57 °FCool.3 mph94%29.95 "Hg3 mi
1:20 AM57 °FCool.3 mph94%29.95 "Hg3 mi
12:20 AM57 °FCool.2 mph94%29.95 "Hg3 mi
Weather by CustomWeather, © 2014

See weather overviewHow to use our weather pages